GalileoSat-29

operational
NORAD ID: 59598 Int'l Des: 2024-079 Owner: EUSPA Country: I-EU Constellation: Galileo
MEOCIRCULAR

About GalileoSat-29

Description loading...

Live Position

Loading 3D Globe...

Upcoming Passes

Altitude History

Altitude vs Time

uPlot chart will show altitude changes over time

Two-Line Element Set

1 59598U 24079A 25297.89173100 .00000049 00000-0 00000+0 0 9994
2 59598 54.9690 107.6611 0002168 152.1856 26.6256 1.70474703 9300
Epoch: Oct 24, 2025 • Age: 30 hours

Current Status

Altitude 23230.8 km
Velocity 3.67 km/s
Sub-Earth Point -33.81°S, 128.28°W
Launch Date Apr 28, 2024
Age 1.4 years
Type navigation

Technical Details

Classification Payload
Mass 733.00 kg
Dry Mass 660.00 kg
Total Mass 733.00 kg
Length 2.70 m
Diameter 1.60 m
Span 14.50 m
Shape Box+2 pan
Manufacturer OHB
Bus Type Galileo
Phase Status In Orbit
Owner/State EUSPA/I-EU

Large Constellations

Loading constellations...